Location: Dompnac
(44.5644°N, 4.1026°E)
Time: 11:40:33
(UTC+00:00)

Cosmos 1891 Rocket - Pass Details

Date: 17 January 2021
Orbit: 934 x 1018 km, 82.9° (Epoch: 24 February)

Event Time Altitude Azimuth Distance (km) Brightness Sun altitude
Rises 17:41:05 0° 339° (NNW) 3,602 7.5 -12.1°
Reaches altitude 10° 17:44:06 10° 325° (NW) 2,651 7.0 -12.6°
Maximum altitude 17:48:32 22° 277° (W) 1,929 7.0 -13.4°
Drops below altitude 10° 17:52:59 10° 229° (SW) 2,649 7.8 -14.1°
Sets 17:56:01 0° 215° (SW) 3,598 8.3 -14.7°
